Weather History for KIER - January, 2013

Change the Weather History Date:

Friday, January 18, 2013

  Actual Average Record
Temperature  
Mean Temperature 42 °F -  
Max Temperature 56 °F 57 °F 82 °F (1974)
Min Temperature 28 °F 38 °F 3 °F (1930)
Degree Days  
Heating Degree Days 23    
Moisture  
Dew Point 31 °F    
Average Humidity 78    
Maximum Humidity 100    
Minimum Humidity 31    
Precipitation  
Precipitation 0.00 in - - ()
Sea Level Pressure  
Sea Level Pressure 30.48 in    
Wind  
Wind Speed 1 mph (ESE)    
Max Wind Speed 7 mph    
Max Gust Speed -    
Visibility 10 miles    
Events      
Averages and records for this station are not official NWS values.
T = Trace of Precipitation, MM = Missing Value Source: NWS Daily Summary

Daily Weather History Graph

Daily Weather History Graph

Search for Another Location

Airport or City:

Trip Planner

Search our weather history database for the weather conditions in past years. The results will help you decide how hot, cold, wet, or windy it might be!

Date:

Astronomy

Jan. 18, 2013 Rise Set
Actual Time 7:11 AM CST 5:34 PM CST
Civil Twilight 6:45 AM CST 6:00 PM CST
Nautical Twilight 6:15 AM CST 6:30 PM CST
Astronomical Twilight 5:46 AM CST 6:59 PM CST
Moon 11:21 AM CST (1/18) No Moon Set
Length of Visible Light 11h 14m
Length of Day
10h 22m
Waxing Crescent, 47% of the Moon is Illuminated
Jan 18
Waxing Crescent
Jan 18
First Quarter
Jan 26
Full
Feb 3
Last Quarter
Feb 10
New

Hourly Weather History & Observations

Time (CST) Temp. Windchill Dew Point Humidity Pressure Visibility Wind Dir Wind Speed Gust Speed Precip Events Conditions
12:15 AM 32.7 °F - 32.5 °F 99% 30.50 in 10.0 mi Calm Calm - N/A   Clear
12:35 AM 32.2 °F - 32.0 °F 99% 30.50 in 10.0 mi Calm Calm - N/A   Clear
12:55 AM 32.0 °F - 32.0 °F 100% 30.51 in 10.0 mi Calm Calm - N/A   Clear
1:15 AM 32.0 °F - 32.0 °F 100% 30.51 in 10.0 mi Calm Calm - N/A   Clear
1:35 AM 32.0 °F - 32.0 °F 100% 30.52 in 10.0 mi Calm Calm - N/A   Clear
1:55 AM 31.8 °F - 31.8 °F 100% 30.52 in 10.0 mi Calm Calm - N/A   Clear
2:15 AM 31.1 °F - 31.1 °F 100% 30.52 in 10.0 mi Calm Calm - N/A   Clear
2:35 AM 30.6 °F - 30.6 °F 100% 30.52 in 10.0 mi Calm Calm - N/A   Clear
2:55 AM 31.1 °F - 31.1 °F 100% 30.51 in 10.0 mi Calm Calm - N/A   Clear
3:15 AM 30.2 °F - 30.2 °F 100% 30.51 in 10.0 mi Calm Calm - N/A   Clear
3:35 AM 30.0 °F - 30.0 °F 100% 30.52 in 10.0 mi Calm Calm - N/A   Clear
3:55 AM 29.7 °F - 29.7 °F 100% 30.52 in 10.0 mi Calm Calm - N/A   Clear
4:15 AM 30.2 °F - 30.2 °F 100% 30.52 in 10.0 mi Calm Calm - N/A   Clear
4:35 AM 30.2 °F - 30.2 °F 100% 30.52 in 10.0 mi Calm Calm - N/A   Clear
4:55 AM 30.0 °F - 30.0 °F 100% 30.51 in 10.0 mi Calm Calm - N/A   Clear
5:15 AM 30.2 °F - 30.0 °F 99% 30.51 in 10.0 mi Calm Calm - N/A   Clear
5:35 AM 30.2 °F - 30.2 °F 100% 30.51 in 10.0 mi Calm Calm - N/A   Clear
5:55 AM 29.3 °F - 29.3 °F 100% 30.52 in 10.0 mi Calm Calm - N/A   Clear
6:15 AM 29.1 °F - 29.1 °F 100% 30.52 in 7.0 mi Calm Calm - N/A   Clear
6:35 AM 28.4 °F - 28.4 °F 100% 30.53 in 5.0 mi Calm Calm - N/A   Clear
6:55 AM 29.3 °F - 29.3 °F 100% 30.53 in 7.0 mi Calm Calm - N/A   Clear
7:15 AM 28.4 °F - 28.4 °F 100% 30.54 in 5.0 mi Calm Calm - N/A   Clear
7:35 AM 28.9 °F - 28.6 °F 99% 30.54 in 10.0 mi Calm Calm - N/A   Clear
7:55 AM 30.0 °F - 30.0 °F 100% 30.55 in 5.0 mi Calm Calm - N/A   Clear
8:15 AM 32.0 °F - 32.0 °F 100% 30.55 in 7.0 mi Calm Calm - N/A   Clear
8:35 AM 34.7 °F - 34.3 °F 99% 30.56 in 7.0 mi Calm Calm - N/A   Clear
8:55 AM 38.3 °F - 33.6 °F 83% 30.57 in 10.0 mi Calm Calm - N/A   Clear
9:15 AM 40.8 °F 37.8 °F 34.3 °F 78% 30.57 in 10.0 mi East 4.6 mph - N/A   Clear
9:35 AM 41.4 °F 37.6 °F 34.2 °F 76% 30.58 in 10.0 mi East 5.8 mph - N/A   Clear
9:55 AM 42.4 °F 40.7 °F 34.3 °F 73% 30.58 in 10.0 mi East 3.5 mph - N/A   Clear
10:15 AM 43.7 °F 41.1 °F 34.2 °F 69% 30.58 in 10.0 mi ESE 4.6 mph - N/A   Clear
10:35 AM 44.6 °F 41.4 °F 33.1 °F 64% 30.58 in 10.0 mi ESE 5.8 mph - N/A   Clear
10:55 AM 46.4 °F - 33.4 °F 61% 30.57 in 10.0 mi Calm Calm - N/A   Clear
11:15 AM 47.7 °F - 33.8 °F 59% 30.56 in 10.0 mi ESE 4.6 mph - N/A   Clear
11:35 AM 48.4 °F - 32.7 °F 55% 30.55 in 10.0 mi SE 4.6 mph - N/A   Clear
11:55 AM 50.0 °F - 32.0 °F 50% 30.53 in 10.0 mi SE 4.6 mph - N/A   Clear
12:15 PM 51.3 °F - 32.7 °F 49% 30.51 in 10.0 mi Calm Calm - N/A   Clear
12:35 PM 52.2 °F - 32.0 °F 46% 30.50 in 10.0 mi Calm Calm - N/A   Clear
12:55 PM 52.7 °F - 31.8 °F 45% 30.49 in 10.0 mi Calm Calm - N/A   Clear
1:15 PM 53.6 °F - 32.2 °F 44% 30.47 in 10.0 mi Calm Calm - N/A   Clear
1:35 PM 54.1 °F - 31.8 °F 43% 30.46 in 10.0 mi East 5.8 mph - N/A   Clear
1:55 PM 55.0 °F - 32.0 °F 42% 30.45 in 10.0 mi East 3.5 mph - N/A   Clear
2:15 PM 55.9 °F - 29.5 °F 36% 30.44 in 10.0 mi ESE 5.8 mph - N/A   Clear
2:35 PM 56.5 °F - 30.6 °F 37% 30.44 in 10.0 mi SE 3.5 mph - N/A   Clear
2:55 PM 56.8 °F - 28.8 °F 34% 30.42 in 10.0 mi SSE 4.6 mph - N/A   Clear
3:15 PM 56.8 °F - 26.2 °F 31% 30.42 in 10.0 mi SE 6.9 mph - N/A   Clear
3:35 PM 56.8 °F - 28.0 °F 33% 30.42 in 10.0 mi SSE 5.8 mph - N/A   Clear
3:55 PM 56.7 °F - 27.7 °F 33% 30.42 in 10.0 mi SE 3.5 mph - N/A   Clear
4:15 PM 56.5 °F - 27.9 °F 33% 30.42 in 10.0 mi SE 3.5 mph - N/A   Clear
4:35 PM 55.9 °F - 28.4 °F 35% 30.41 in 10.0 mi Calm Calm - N/A   Clear
4:55 PM 54.7 °F - 28.8 °F 37% 30.41 in 10.0 mi Calm Calm - N/A   Clear
5:15 PM 53.8 °F - 30.6 °F 41% 30.41 in 10.0 mi Calm Calm - N/A   Clear
5:35 PM 51.4 °F - 28.8 °F 42% 30.41 in 10.0 mi Calm Calm - N/A   Clear
5:55 PM 45.5 °F - 34.2 °F 65% 30.41 in 10.0 mi Calm Calm - N/A   Clear
6:15 PM 42.8 °F - 34.5 °F 73% 30.41 in 10.0 mi Calm Calm - N/A   Clear
6:35 PM 41.7 °F - 34.5 °F 76% 30.41 in 10.0 mi Calm Calm - N/A   Clear
6:55 PM 40.3 °F - 36.5 °F 86% 30.41 in 10.0 mi Calm Calm - N/A   Clear
7:15 PM 38.8 °F - 35.6 °F 88% 30.41 in 10.0 mi Calm Calm - N/A   Clear
7:35 PM 38.1 °F - 35.6 °F 91% 30.40 in 10.0 mi Calm Calm - N/A   Clear
7:55 PM 37.2 °F - 34.0 °F 88% 30.40 in 10.0 mi Calm Calm - N/A   Clear
8:15 PM 36.1 °F - 33.4 °F 90% 30.40 in 10.0 mi Calm Calm - N/A   Clear
8:35 PM 35.2 °F - 33.1 °F 92% 30.41 in 10.0 mi Calm Calm - N/A   Clear
8:55 PM 35.2 °F - 33.3 °F 92% 30.40 in 10.0 mi Calm Calm - N/A   Clear
9:35 PM 33.8 °F - 32.0 °F 93% 30.40 in 10.0 mi Calm Calm - N/A   Clear
9:55 PM 32.4 °F - 31.5 °F 96% 30.40 in 10.0 mi Calm Calm - N/A   Clear
10:15 PM 32.5 °F - 32.0 °F 98% 30.40 in 10.0 mi Calm Calm - N/A   Clear
10:35 PM 32.0 °F - 31.1 °F 96% 30.40 in 10.0 mi Calm Calm - N/A   Clear
10:55 PM 32.0 °F - 30.9 °F 96% 30.39 in 10.0 mi Calm Calm - N/A   Clear
11:15 PM 31.6 °F - 30.7 °F 96% 30.39 in 10.0 mi Calm Calm - N/A   Clear
11:35 PM 30.9 °F - 29.7 °F 95% 30.39 in 10.0 mi Calm Calm - N/A   Clear
11:55 PM 31.1 °F - 30.2 °F 96% 30.38 in 10.0 mi Calm Calm - N/A   Clear